Location: Caltech
(34.1382°N, 118.1253°W)
Time: 01:13:42
(UTC-07:00)

Cosmos 2333 Rocket - Visible Passes

Search period start: 29 May 2015 00:00
Search period end: 08 June 2015 00:00
Orbit: 838 x 864 km, 70.8° (Epoch: 29 May)

Date Brightness Start Highest point End Pass type
(mag) Time Alt. Az. Time Alt. Az. Time Alt. Az.
29 May 4.7 00:23:21 11° W 00:26:20 15° NW 00:29:26 10° NNW visible
29 May 2.1 22:28:22 63° SSE 22:29:08 72° ESE 22:34:54 10° NNE visible
30 May 4.7 00:10:45 10° W 00:14:06 15° NW 00:17:11 10° NNW visible
30 May 2.1 22:15:05 44° S 22:16:53 72° ESE 22:22:39 10° NNE visible
30 May 4.8 23:58:30 10° W 00:01:51 15° NW 00:04:56 10° NNW visible
31 May 2.1 22:01:27 27° S 22:04:39 72° ESE 22:10:25 10° NNE visible
31 May 4.8 23:46:16 10° W 23:49:37 15° NW 23:52:42 10° NNW visible
01 Jun 2.1 21:47:15 13° S 21:52:24 72° ESE 21:58:10 10° NNE visible
01 Jun 4.9 23:34:01 10° W 23:37:22 15° NW 23:40:27 10° NNW visible
02 Jun 2.1 21:34:27 10° SSW 21:40:10 72° ESE 21:45:56 10° NNE visible
02 Jun 4.9 23:21:47 10° W 23:25:08 15° NW 23:28:13 10° NNW visible
03 Jun 2.2 21:22:12 10° SSW 21:27:55 72° ESE 21:33:41 10° NNE visible
03 Jun 4.9 23:09:33 10° W 23:12:54 15° NW 23:15:58 10° NNW visible
04 Jun 2.2 21:09:58 10° SSW 21:15:41 72° ESE 21:21:27 10° NNE visible
04 Jun 5.0 22:57:18 10° W 23:00:39 15° NW 23:03:44 10° NNW visible
05 Jun 2.2 20:57:43 10° SSW 21:03:27 72° ESE 21:09:12 10° NNE visible
05 Jun 5.0 22:45:04 10° W 22:48:25 15° NW 22:51:29 10° NNW visible
06 Jun 2.2 20:45:29 10° SSW 20:51:12 72° ESE 20:56:58 10° NNE visible
06 Jun 5.1 22:32:51 10° W 22:36:10 15° NW 22:39:14 10° NNW visible
07 Jun 2.2 20:33:15 10° SSW 20:38:58 72° ESE 20:44:44 10° NNE visible
07 Jun 5.1 22:20:36 10° W 22:23:56 15° NW 22:27:00 10° NNW visible
